Weather History for KAZE - January, 2013

Change the Weather History Date:

Sunday, January 13, 2013

  Actual Average (KAMG) Record (KAMG)
Temperature  
Mean Temperature 66 °F 50 °F  
Max Temperature 77 °F 61 °F 81 °F (2013)
Min Temperature 58 °F 39 °F 11 °F (1981)
Degree Days  
Heating Degree Days 0 15  
Month to date heating degree days 195  
Since 1 July heating degree days 835  
Cooling Degree Days 2 0  
Month to date cooling degree days 0  
Year to date cooling degree days 0  
Growing Degree Days 16 (Base 50)    
Moisture  
Dew Point 61 °F    
Average Humidity 88    
Maximum Humidity 100    
Minimum Humidity 65    
Precipitation  
Precipitation 0.00 in 0.13 in 2.02 in (1992)
Month to date precipitation 1.68  
Year to date precipitation 1.68  
Snow  
Snow 0.00 in 0.00 in 0.00 in ()
Month to date snowfall 0.0  
Since 1 July snowfall 0.1  
Snow Depth -    
Sea Level Pressure  
Sea Level Pressure 30.11 in    
Wind  
Wind Speed 5 mph (South)    
Max Wind Speed 9 mph    
Max Gust Speed -    
Visibility 10 miles    
Events      
T = Trace of Precipitation, MM = Missing Value Source: NWS Daily Summary

Daily Weather History Graph

Daily Weather History Graph

Search for Another Location

Airport or City:

Trip Planner

Search our weather history database for the weather conditions in past years. The results will help you decide how hot, cold, wet, or windy it might be!

Date:

Astronomy

Jan. 13, 2013 Rise Set
Actual Time 7:31 AM EST 5:47 PM EST
Civil Twilight 7:04 AM EST 6:14 PM EST
Nautical Twilight 6:34 AM EST 6:44 PM EST
Astronomical Twilight 6:05 AM EST 7:13 PM EST
Moon 8:39 AM EST (1/13) 8:13 PM EST (1/13)
Length of Visible Light 11h 09m
Length of Day
10h 16m
Waxing Crescent, 5% of the Moon is Illuminated
Jan 13
Waxing Crescent
Jan 18
First Quarter
Jan 26
Full
Feb 3
Last Quarter
Feb 10
New

Hourly Weather History & Observations

Time (EST) Temp. Dew Point Humidity Pressure Visibility Wind Dir Wind Speed Gust Speed Precip Events Conditions
12:15 AM 61.9 °F 59.7 °F 93% 30.12 in 10.0 mi South 5.8 mph - N/A   Scattered Clouds
12:35 AM 61.9 °F 59.4 °F 91% 30.12 in 10.0 mi SSE 5.8 mph - N/A   Scattered Clouds
12:55 AM 61.7 °F 59.2 °F 91% 30.12 in 10.0 mi South 4.6 mph - N/A   Clear
1:15 AM 61.2 °F 59.2 °F 93% 30.12 in 10.0 mi South 4.6 mph - N/A   Clear
1:35 AM 60.6 °F 59.0 °F 94% 30.12 in 10.0 mi South 4.6 mph - N/A   Clear
1:55 AM 60.1 °F 59.0 °F 96% 30.11 in 10.0 mi SSE 5.8 mph - N/A   Clear
2:15 AM 60.3 °F 59.0 °F 96% 30.10 in 10.0 mi South 5.8 mph - N/A   Clear
2:35 AM 60.3 °F 59.0 °F 96% 30.10 in 10.0 mi South 5.8 mph - N/A   Clear
2:55 AM 60.1 °F 59.0 °F 96% 30.09 in 10.0 mi SSE 5.8 mph - N/A   Clear
3:15 AM 59.5 °F 59.2 °F 99% 30.09 in 10.0 mi SSE 5.8 mph - N/A   Clear
3:35 AM 59.2 °F 59.4 °F 100% 30.10 in 10.0 mi South 3.5 mph - N/A   Clear
3:55 AM 59.0 °F 59.2 °F 100% 30.10 in 10.0 mi South 3.5 mph - N/A   Clear
4:15 AM 58.8 °F 59.0 °F 100% 30.09 in 10.0 mi SSE 4.6 mph - N/A   Clear
4:35 AM 58.8 °F 59.0 °F 100% 30.09 in 10.0 mi South 4.6 mph - N/A   Clear
4:55 AM 59.0 °F 59.0 °F 100% 30.09 in 10.0 mi South 4.6 mph - N/A   Clear
5:15 AM 58.6 °F 58.8 °F 100% 30.08 in 10.0 mi SSE 5.8 mph - N/A   Clear
5:35 AM 58.6 °F 59.0 °F 100% 30.09 in 10.0 mi South 4.6 mph - N/A   Clear
5:55 AM 58.5 °F 58.6 °F 100% 30.09 in 10.0 mi SSE 5.8 mph - N/A   Clear
6:15 AM 58.5 °F 58.5 °F 100% 30.10 in 7.0 mi SSE 4.6 mph - N/A   Clear
6:35 AM 58.5 °F 58.5 °F 100% 30.11 in 7.0 mi South 4.6 mph - N/A   Clear
6:55 AM 58.6 °F 58.8 °F 100% 30.11 in 5.0 mi South 5.8 mph - N/A   Scattered Clouds
7:35 AM 59.0 °F 59.0 °F 100% 30.13 in 5.0 mi South 5.8 mph - N/A   Clear
7:55 AM 59.0 °F 59.2 °F 100% 30.14 in 5.0 mi South 6.9 mph - N/A   Clear
8:15 AM 59.5 °F 59.7 °F 100% 30.14 in 5.0 mi South 8.1 mph - N/A   Clear
8:35 AM 60.4 °F 60.6 °F 100% 30.14 in 7.0 mi South 6.9 mph - N/A   Clear
8:55 AM 61.3 °F 61.5 °F 100% 30.14 in 10.0 mi South 6.9 mph - N/A   Clear
9:15 AM 62.2 °F 62.4 °F 100% 30.15 in 10.0 mi South 5.8 mph - N/A   Clear
9:35 AM 63.0 °F 63.1 °F 100% 30.16 in 10.0 mi South 8.1 mph - N/A   Clear
10:15 AM 67.1 °F 64.4 °F 91% 30.17 in 10.0 mi South 8.1 mph - N/A   Scattered Clouds
10:55 AM 69.8 °F 64.2 °F 82% 30.15 in 10.0 mi South 6.9 mph - N/A   Clear
11:15 AM 70.7 °F 64.4 °F 80% 30.14 in 10.0 mi South 9.2 mph - N/A   Clear
11:35 AM 72.1 °F 64.4 °F 77% 30.13 in 10.0 mi South 8.1 mph - N/A   Clear
12:15 PM 73.6 °F 63.5 °F 71% 30.10 in 10.0 mi South 8.1 mph - N/A   Clear
12:55 PM 74.7 °F 64.0 °F 69% 30.08 in 10.0 mi South 8.1 mph - N/A   Scattered Clouds
1:15 PM 75.0 °F 64.2 °F 69% 30.07 in 10.0 mi South 8.1 mph - N/A   Clear
1:35 PM 75.6 °F 63.9 °F 67% 30.07 in 10.0 mi South 6.9 mph - N/A   Clear
1:55 PM 75.0 °F 63.1 °F 66% 30.07 in 10.0 mi SSW 6.9 mph - N/A   Clear
2:15 PM 75.4 °F 63.0 °F 65% 30.08 in 10.0 mi SSW 6.9 mph - N/A   Scattered Clouds
2:35 PM 74.8 °F 62.6 °F 66% 30.09 in 10.0 mi South 5.8 mph - N/A   Scattered Clouds
2:55 PM 75.0 °F 63.1 °F 66% 30.09 in 10.0 mi Calm Calm - N/A   Overcast
3:15 PM 75.2 °F 63.3 °F 66% 30.09 in 10.0 mi SSW 6.9 mph - N/A   Overcast
3:35 PM 75.2 °F 63.3 °F 66% 30.09 in 10.0 mi South 3.5 mph - N/A   Mostly Cloudy
3:55 PM 75.0 °F 63.0 °F 66% 30.09 in 10.0 mi Calm Calm - N/A   Mostly Cloudy
4:15 PM 75.2 °F 63.0 °F 66% 30.09 in 10.0 mi South 4.6 mph - N/A   Scattered Clouds
4:55 PM 74.1 °F 62.6 °F 67% 30.10 in 10.0 mi South 3.5 mph - N/A   Clear
5:15 PM 73.0 °F 63.0 °F 71% 30.09 in 10.0 mi South 4.6 mph - N/A   Clear
5:35 PM 72.0 °F 62.8 °F 73% 30.08 in 10.0 mi SSE 3.5 mph - N/A   Clear
5:55 PM 70.9 °F 62.6 °F 75% 30.09 in 10.0 mi SSE 3.5 mph - N/A   Clear
6:15 PM 69.6 °F 62.6 °F 78% 30.09 in 10.0 mi Calm Calm - N/A   Scattered Clouds
6:35 PM 68.2 °F 62.4 °F 82% 30.09 in 10.0 mi South 3.5 mph - N/A   Scattered Clouds
6:55 PM 67.1 °F 62.2 °F 84% 30.09 in 10.0 mi South 4.6 mph - N/A   Clear
7:15 PM 66.7 °F 62.1 °F 85% 30.10 in 10.0 mi South 3.5 mph - N/A   Scattered Clouds
7:35 PM 65.3 °F 61.7 °F 88% 30.09 in 10.0 mi South 4.6 mph - N/A   Mostly Cloudy
7:55 PM 65.7 °F 62.1 °F 88% 30.09 in 10.0 mi South 4.6 mph - N/A   Overcast
8:15 PM 66.4 °F 62.1 °F 86% 30.11 in 10.0 mi South 3.5 mph - N/A   Mostly Cloudy
8:35 PM 64.6 °F 61.7 °F 90% 30.11 in 10.0 mi South 3.5 mph - N/A   Mostly Cloudy
8:55 PM 64.6 °F 61.9 °F 91% 30.11 in 10.0 mi South 3.5 mph - N/A   Overcast
9:15 PM 64.4 °F 61.9 °F 92% 30.11 in 10.0 mi South 3.5 mph - N/A   Mostly Cloudy
9:35 PM 63.9 °F 61.7 °F 93% 30.12 in 10.0 mi South 3.5 mph - N/A   Scattered Clouds
9:55 PM 64.6 °F 61.9 °F 91% 30.13 in 10.0 mi WSW 4.6 mph - N/A   Mostly Cloudy
10:15 PM 64.2 °F 61.9 °F 92% 30.13 in 10.0 mi Calm Calm - N/A   Mostly Cloudy
10:35 PM 63.7 °F 61.5 °F 93% 30.13 in 10.0 mi South 3.5 mph - N/A   Scattered Clouds
10:55 PM 63.3 °F 61.3 °F 93% 30.13 in 10.0 mi SSE 4.6 mph - N/A   Clear
11:15 PM 62.6 °F 61.3 °F 96% 30.13 in 10.0 mi SSE 5.8 mph - N/A   Clear
11:35 PM 62.8 °F 61.3 °F 95% 30.13 in 10.0 mi SSE 4.6 mph - N/A   Clear
11:55 PM 62.8 °F 61.3 °F 95% 30.12 in 10.0 mi SSE 6.9 mph - N/A   Clear